Location: Bishopstone
(51.0167°N, 1.9000°W)
Time: 07:01:47
(UTC+00:00)

ADEOS Rocket - Pass Details

Date: 16 September 2019
Orbit: 859 x 1306 km, 98.7° (Epoch: 15 October)

Event Time Altitude Azimuth Distance (km) Brightness Sun altitude
Rises 20:05:40 0° 16° (NNE) 3,982 6.3 -16.7°
Reaches altitude 10° 20:08:11 10° 19° (NNE) 3,076 5.7 -17.1°
Maximum altitude 20:15:19 70° 103° (ESE) 1,308 3.4 -18.1°
Drops below altitude 10° 20:22:58 10° 187° (S) 3,291 5.5 -19.1°
Sets 20:25:44 0° 189° (S) 4,275 6.1 -19.5°
